CZ-2C R/B (48427 NORAD) Tracking and Keplerian Element Data

This shows tracking and keplerian element data for the satellite.

Feedback or suggestion? Click here.




ElementValue
Catalog48427
NameCZ-2C R/B
Epoch Orbit440
Epoch Day156.07814485
Epoch Year2021
RAAN292.0877
Inclination34.9879
Eccentricity0.009459
Argument of Perigee320.055
Mean Anonmoly39.3222
Mean Motion15.10848487
Decay Rate3.08E-06
L11 48427U 21039E 21156.07814485 .00000308 00000-0 18233-4 0 9994
L22 48427 34.9879 292.0877 0094590 320.0550 39.3222 15.10848487 4409

Live tracking and technical data element details for CZ-2C R/B (NORAD 48427). CZ-2C R/B can be tracked NOW for your location showing map with azimuth and elevation plus other details from your city location.

Track the satellite on the map from your city or location and see movement details for azimuth, elevation, latitude, longitude, range, height, and movement on the map or in text.







IsCatalogInMostPopularTable: catalog: 48427, numindb: 32
Update: records affected: 1



GetName: 48427 CZ-2C R/B

Hit Count: updated at: Sat, 31 Jul 2021 16:15:21 GMT